| time (UTC) | temp C | wind direction | speed KPH | gust KPH | rain 1hr cm | rain 24hr cm | rain mn cm | humidity % | barometer mb |
| 20260509090443 | 10 | 160 | 0.0 | 6.4 | 0.00 | 0.00 | 0.00 | 90 | 1005.0 |
| 20260509085923 | 10 | 195 | 1.6 | 6.4 | 0.00 | 0.00 | 0.00 | 90 | 1005.0 |
| 20260509085423 | 10 | 186 | 1.6 | 6.4 | 0.00 | 0.00 | 0.00 | 90 | 1005.1 |
| 20260509084925 | 10 | 200 | 1.6 | 4.8 | 0.00 | 0.00 | 0.00 | 90 | 1005.0 |
| 20260509084446 | 10 | 202 | 0.0 | 4.8 | 0.00 | 0.00 | 0.00 | 90 | 1005.0 |
| 20260509083947 | 10 | 205 | 0.0 | 1.6 | 0.00 | 0.00 | 0.00 | 89 | 1005.1 |
| 20260509083425 | 10 | 232 | 0.0 | 6.4 | 0.00 | 0.00 | 0.00 | 89 | 1005.0 |
| 20260509082926 | 10 | 171 | 1.6 | 6.4 | 0.00 | 0.00 | 0.00 | 89 | 1005.0 |
| 20260509082428 | 10 | 207 | 1.6 | 6.4 | 0.00 | 0.00 | 0.00 | 89 | 1005.0 |
| 20260509081928 | 11 | 178 | 0.0 | 4.8 | 0.00 | 0.00 | 0.00 | 89 | 1005.1 |
| 20260509081429 | 11 | 182 | 0.0 | 4.8 | 0.00 | 0.00 | 0.00 | 89 | 1005.2 |
| 20260509080928 | 11 | 360 | 0.0 | 4.8 | 0.00 | 0.00 | 0.00 | 88 | 1005.2 |
| 20260509080429 | 11 | 360 | 0.0 | 4.8 | 0.00 | 0.00 | 0.00 | 88 | 1005.2 |
| 20260509075949 | 11 | 360 | 0.0 | 4.8 | 0.00 | 0.00 | 0.00 | 88 | 1005.3 |
| 20260509075429 | 11 | 360 | 0.0 | 4.8 | 0.00 | 0.00 | 0.00 | 88 | 1005.3 |
| 20260509074928 | 11 | 360 | 0.0 | 3.2 | 0.00 | 0.00 | 0.00 | 88 | 1005.2 |
| 20260509074429 | 11 | 360 | 1.6 | 3.2 | 0.00 | 0.00 | 0.00 | 87 | 1005.3 |
| 20260509073928 | 11 | 360 | 0.0 | 3.2 | 0.00 | 0.00 | 0.00 | 87 | 1005.4 |
| 20260509073429 | 11 | 360 | 0.0 | 3.2 | 0.00 | 0.00 | 0.00 | 87 | 1005.3 |
| 20260509072948 | 11 | 360 | 0.0 | 0.0 | 0.00 | 0.00 | 0.00 | 87 | 1005.3 |
| 20260509072428 | 11 | 360 | 0.0 | 0.0 | 0.00 | 0.00 | 0.00 | 87 | 1005.4 |
| 20260509071929 | 11 | 360 | 0.0 | 4.8 | 0.00 | 0.00 | 0.00 | 87 | 1005.5 |
| 20260509071431 | 11 | 360 | 0.0 | 4.8 | 0.00 | 0.00 | 0.00 | 87 | 1005.6 |
| 20260509070929 | 11 | 360 | 1.6 | 4.8 | 0.00 | 0.00 | 0.00 | 87 | 1005.6 |
| 20260509070449 | 11 | 360 | 0.0 | 4.8 | 0.00 | 0.00 | 0.00 | 86 | 1005.7 |
| 20260509065928 | 11 | 360 | 1.6 | 4.8 | 0.00 | 0.00 | 0.00 | 86 | 1005.5 |
| 20260509065428 | 11 | 360 | 0.0 | 0.0 | 0.00 | 0.00 | 0.00 | 86 | 1005.7 |
| 20260509064929 | 11 | 360 | 0.0 | 3.2 | 0.00 | 0.00 | 0.00 | 85 | 1005.7 |
| 20260509064431 | 11 | 360 | 1.6 | 3.2 | 0.00 | 0.00 | 0.00 | 85 | 1005.7 |
| 20260509063932 | 11 | 360 | 0.0 | 4.8 | 0.00 | 0.00 | 0.00 | 85 | 1005.7 |
| 20260509063453 | 11 | 360 | 0.0 | 1.6 | 0.00 | 0.00 | 0.00 | 85 | 1005.8 |
| 20260509062952 | 11 | 360 | 0.0 | 3.2 | 0.00 | 0.00 | 0.00 | 84 | 1005.8 |
| 20260509062432 | 11 | 360 | 0.0 | 4.8 | 0.00 | 0.00 | 0.00 | 84 | 1005.8 |
| 20260509061932 | 11 | 360 | 1.6 | 4.8 | 0.00 | 0.00 | 0.00 | 84 | 1005.8 |
| 20260509061431 | 11 | 360 | 0.0 | 1.6 | 0.00 | 0.00 | 0.00 | 83 | 1005.8 |
| 20260509060951 | 11 | 360 | 0.0 | 1.6 | 0.00 | 0.00 | 0.00 | 83 | 1005.9 |
| 20260509060431 | 11 | 360 | 0.0 | 4.8 | 0.00 | 0.03 | 0.00 | 83 | 1006.0 |
| 20260509055946 | 12 | 360 | 3.2 | 4.8 | 0.00 | 0.03 | 0.00 | 83 | 1006.1 |
| 20260509055426 | 12 | 360 | 0.0 | 0.0 | 0.00 | 0.03 | 0.00 | 82 | 1006.2 |
| 20260509054927 | 12 | 360 | 0.0 | 0.0 | 0.00 | 0.03 | 0.00 | 82 | 1006.2 |
| 20260509054428 | 12 | 360 | 0.0 | 0.0 | 0.00 | 0.03 | 0.00 | 82 | 1006.2 |
| 20260509053926 | 12 | 360 | 0.0 | 3.2 | 0.00 | 0.03 | 0.00 | 82 | 1006.3 |
| 20260509053427 | 12 | 360 | 0.0 | 3.2 | 0.00 | 0.03 | 0.00 | 81 | 1006.2 |
| 20260509052926 | 12 | 360 | 0.0 | 1.6 | 0.00 | 0.03 | 0.00 | 81 | 1006.2 |
| 20260509052425 | 12 | 360 | 0.0 | 3.2 | 0.00 | 0.03 | 0.00 | 81 | 1006.2 |
| 20260509051927 | 12 | 360 | 0.0 | 3.2 | 0.00 | 0.03 | 0.00 | 80 | 1006.4 |
| 20260509051413 | 12 | 360 | 0.0 | 4.8 | 0.00 | 0.03 | 0.00 | 80 | 1006.2 |
| 20260509050914 | 12 | 360 | 0.0 | 4.8 | 0.00 | 0.03 | 0.00 | 79 | 1006.3 |
| 20260509050414 | 12 | 360 | 0.0 | 1.6 | 0.00 | 0.03 | 0.00 | 79 | 1006.3 |
| 20260509045916 | 12 | 360 | 0.0 | 4.8 | 0.00 | 0.03 | 0.00 | 79 | 1006.4 |
| 20260509045416 | 12 | 360 | 1.6 | 4.8 | 0.00 | 0.03 | 0.00 | 79 | 1006.3 |
| 20260509044915 | 12 | 360 | 0.0 | 4.8 | 0.00 | 0.03 | 0.00 | 78 | 1006.4 |
| 20260509044418 | 12 | 360 | 1.6 | 4.8 | 0.00 | 0.03 | 0.00 | 78 | 1006.5 |
| 20260509043917 | 12 | 360 | 0.0 | 1.6 | 0.00 | 0.03 | 0.00 | 78 | 1006.5 |
| 20260509043418 | 12 | 360 | 0.0 | 1.6 | 0.00 | 0.03 | 0.00 | 78 | 1006.5 |
| 20260509042936 | 12 | 360 | 0.0 | 3.2 | 0.00 | 0.03 | 0.00 | 77 | 1006.6 |
| 20260509042415 | 12 | 360 | 0.0 | 3.2 | 0.00 | 0.03 | 0.00 | 77 | 1006.6 |
| 20260509041916 | 12 | 360 | 0.0 | 0.0 | 0.00 | 0.03 | 0.00 | 77 | 1006.6 |
| 20260509041416 | 13 | 360 | 0.0 | 0.0 | 0.00 | 0.03 | 0.00 | 77 | 1006.7 |
| 20260509040917 | 13 | 360 | 0.0 | 4.8 | 0.00 | 0.03 | 0.00 | 77 | 1006.6 |
| 20260509040434 | 13 | 360 | 0.0 | 4.8 | 0.00 | 0.03 | 0.03 | 77 | 1006.6 |
| 20260509035914 | 13 | 360 | 0.0 | 0.0 | 0.00 | 0.03 | 0.03 | 77 | 1006.6 |
| 20260509035434 | 13 | 360 | 0.0 | 0.0 | 0.00 | 0.03 | 0.03 | 77 | 1006.7 |
| 20260509034934 | 13 | 360 | 0.0 | 0.0 | 0.00 | 0.03 | 0.03 | 77 | 1006.7 |
| 20260509034413 | 13 | 360 | 0.0 | 0.0 | 0.00 | 0.03 | 0.03 | 77 | 1006.8 |
| 20260509033914 | 13 | 360 | 0.0 | 4.8 | 0.00 | 0.03 | 0.03 | 77 | 1006.8 |
| 20260509033414 | 13 | 360 | 0.0 | 4.8 | 0.00 | 0.03 | 0.03 | 77 | 1006.8 |
| 20260509032913 | 13 | 360 | 0.0 | 3.2 | 0.00 | 0.03 | 0.03 | 77 | 1007.0 |
| 20260509032413 | 13 | 360 | 0.0 | 3.2 | 0.00 | 0.03 | 0.03 | 77 | 1007.1 |
| 20260509031913 | 13 | 360 | 0.0 | 1.6 | 0.00 | 0.03 | 0.03 | 78 | 1007.1 |
| 20260509031415 | 13 | 360 | 0.0 | 3.2 | 0.00 | 0.03 | 0.03 | 78 | 1007.1 |
| 20260509030936 | 13 | 360 | 1.6 | 6.4 | 0.00 | 0.03 | 0.03 | 78 | 1007.0 |
| 20260509030435 | 13 | 360 | 3.2 | 4.8 | 0.00 | 0.03 | 0.03 | 78 | 1007.0 |
| 20260509025955 | 13 | 360 | 0.0 | 4.8 | 0.00 | 0.03 | 0.03 | 78 | 1007.0 |
| 20260509025435 | 13 | 360 | 1.6 | 4.8 | 0.00 | 0.03 | 0.03 | 77 | 1007.0 |
| 20260509024915 | 13 | 360 | 0.0 | 0.0 | 0.00 | 0.03 | 0.03 | 77 | 1007.1 |
| 20260509024415 | 13 | 360 | 0.0 | 0.0 | 0.00 | 0.03 | 0.03 | 77 | 1007.2 |
| 20260509023914 | 13 | 360 | 0.0 | 0.0 | 0.00 | 0.03 | 0.03 | 76 | 1007.2 |
| 20260509023414 | 13 | 360 | 0.0 | 0.0 | 0.00 | 0.03 | 0.03 | 76 | 1007.1 |
| 20260509022914 | 13 | 360 | 0.0 | 0.0 | 0.00 | 0.03 | 0.03 | 75 | 1007.1 |
| 20260509022414 | 13 | 360 | 0.0 | 0.0 | 0.00 | 0.03 | 0.03 | 74 | 1007.2 |
| 20260509021915 | 13 | 360 | 0.0 | 0.0 | 0.00 | 0.03 | 0.03 | 74 | 1007.1 |
| 20260509021416 | 14 | 360 | 0.0 | 0.0 | 0.00 | 0.03 | 0.03 | 73 | 1007.2 |
| 20260509020917 | 14 | 360 | 0.0 | 0.0 | 0.00 | 0.03 | 0.03 | 72 | 1007.2 |
| 20260509020416 | 14 | 360 | 0.0 | 0.0 | 0.00 | 0.03 | 0.03 | 73 | 1007.2 |
| 20260509015916 | 14 | 360 | 0.0 | 0.0 | 0.00 | 0.03 | 0.03 | 73 | 1007.1 |
| 20260509015417 | 14 | 360 | 0.0 | 0.0 | 0.00 | 0.03 | 0.03 | 72 | 1007.2 |
| 20260509014937 | 15 | 360 | 0.0 | 0.0 | 0.00 | 0.03 | 0.03 | 71 | 1007.3 |
| 20260509014418 | 15 | 360 | 0.0 | 0.0 | 0.00 | 0.03 | 0.03 | 71 | 1007.1 |
| 20260509013918 | 15 | 360 | 0.0 | 0.0 | 0.00 | 0.03 | 0.03 | 70 | 1007.3 |
| 20260509013419 | 15 | 360 | 0.0 | 0.0 | 0.00 | 0.03 | 0.03 | 69 | 1007.2 |
| 20260509012921 | 15 | 360 | 0.0 | 0.0 | 0.00 | 0.03 | 0.03 | 67 | 1007.3 |
| 20260509012422 | 15 | 360 | 0.0 | 0.0 | 0.00 | 0.03 | 0.03 | 66 | 1007.2 |
| 20260509011923 | 15 | 360 | 0.0 | 0.0 | 0.00 | 0.03 | 0.03 | 66 | 1007.2 |
| 20260509011423 | 15 | 360 | 0.0 | 0.0 | 0.00 | 0.03 | 0.03 | 64 | 1007.1 |
| 20260509010923 | 16 | 360 | 0.0 | 0.0 | 0.00 | 0.03 | 0.03 | 63 | 1007.1 |
| 20260509010442 | 16 | 360 | 0.0 | 0.0 | 0.00 | 0.15 | 0.03 | 64 | 1007.1 |
| 20260509005922 | 16 | 360 | 0.0 | 0.0 | 0.00 | 0.15 | 0.03 | 63 | 1007.1 |
| 20260509005424 | 16 | 360 | 0.0 | 0.0 | 0.00 | 0.15 | 0.03 | 62 | 1007.0 |
| 20260509004924 | 16 | 360 | 0.0 | 0.0 | 0.00 | 0.15 | 0.03 | 60 | 1006.9 |
| 20260509004424 | 16 | 360 | 0.0 | 0.0 | 0.00 | 0.15 | 0.03 | 59 | 1007.0 |
| 20260509003924 | 16 | 360 | 0.0 | 0.0 | 0.00 | 0.15 | 0.03 | 58 | 1007.1 |
| 20260509003425 | 16 | 360 | 0.0 | 0.0 | 0.00 | 0.15 | 0.03 | 56 | 1006.9 |
| 20260509002927 | 16 | 238 | 0.0 | 0.0 | 0.00 | 0.15 | 0.03 | 55 | 1006.9 |
| 20260509002425 | 17 | 238 | 0.0 | 0.0 | 0.00 | 0.15 | 0.03 | 54 | 1006.8 |
| 20260509001927 | 17 | 201 | 0.0 | 0.0 | 0.00 | 0.15 | 0.03 | 53 | 1006.8 |
| 20260509001427 | 17 | 201 | 0.0 | 0.0 | 0.00 | 0.15 | 0.03 | 52 | 1006.8 |
| 20260509000927 | 17 | 201 | 0.0 | 0.0 | 0.00 | 0.15 | 0.03 | 52 | 1006.7 |
| 20260509000448 | 17 | 143 | 0.0 | 4.8 | 0.00 | 0.15 | 0.03 | 51 | 1006.7 |
| 20260508235929 | 17 | 219 | 1.6 | 4.8 | 0.00 | 0.15 | 0.03 | 53 | 1006.8 |
| 20260508235430 | 17 | 176 | 0.0 | 3.2 | 0.00 | 0.15 | 0.03 | 53 | 1006.7 |
| 20260508234949 | 17 | 176 | 0.0 | 3.2 | 0.00 | 0.15 | 0.03 | 52 | 1006.7 |
| 20260508234430 | 17 | 161 | 0.0 | 3.2 | 0.00 | 0.15 | 0.03 | 52 | 1006.8 |
| 20260508233931 | 17 | 139 | 0.0 | 6.4 | 0.00 | 0.15 | 0.03 | 52 | 1006.8 |
| 20260508233432 | 17 | 209 | 3.2 | 6.4 | 0.00 | 0.15 | 0.03 | 51 | 1006.9 |
| 20260508232913 | 17 | 205 | 1.6 | 3.2 | 0.00 | 0.15 | 0.03 | 51 | 1006.9 |
| 20260508232432 | 18 | 261 | 0.0 | 6.4 | 0.00 | 0.15 | 0.03 | 51 | 1006.9 |
| 20260508231913 | 18 | 255 | 1.6 | 6.4 | 0.00 | 0.15 | 0.03 | 51 | 1006.9 |
| 20260508231433 | 18 | 216 | 3.2 | 8.0 | 0.00 | 0.15 | 0.03 | 50 | 1007.0 |
| 20260508230933 | 18 | 186 | 3.2 | 6.4 | 0.00 | 0.15 | 0.03 | 51 | 1006.9 |
| 20260508230415 | 18 | 175 | 1.6 | 4.8 | 0.00 | 0.15 | 0.03 | 52 | 1007.0 |
| 20260508225934 | 18 | 221 | 1.6 | 9.7 | 0.00 | 0.15 | 0.03 | 50 | 1006.9 |
| 20260508225449 | 18 | 236 | 3.2 | 9.7 | 0.00 | 0.15 | 0.03 | 49 | 1007.0 |
| 20260508224913 | 18 | 248 | 3.2 | 8.0 | 0.00 | 0.15 | 0.03 | 50 | 1007.0 |
| 20260508224428 | 18 | 20 | 3.2 | 6.4 | 0.00 | 0.15 | 0.03 | 51 | 1006.9 |
| 20260508223949 | 18 | 159 | 0.0 | 8.0 | 0.00 | 0.15 | 0.03 | 52 | 1007.0 |
| 20260508223428 | 18 | 249 | 4.8 | 8.0 | 0.00 | 0.15 | 0.03 | 53 | 1007.1 |
| 20260508222930 | 18 | 176 | 1.6 | 8.0 | 0.00 | 0.15 | 0.03 | 53 | 1007.0 |
| 20260508222430 | 18 | 252 | 1.6 | 11.3 | 0.00 | 0.15 | 0.03 | 53 | 1006.9 |
| 20260508221928 | 18 | 219 | 3.2 | 6.4 | 0.00 | 0.15 | 0.03 | 52 | 1007.0 |
| 20260508221428 | 18 | 26 | 1.6 | 4.8 | 0.00 | 0.15 | 0.03 | 51 | 1007.0 |
| 20260508220928 | 18 | 205 | 1.6 | 6.4 | 0.00 | 0.15 | 0.03 | 53 | 1007.1 |
| 20260508220428 | 18 | 253 | 3.2 | 8.0 | 0.00 | 0.15 | 0.03 | 53 | 1007.1 |
| 20260508215929 | 18 | 235 | 3.2 | 9.7 | 0.00 | 0.15 | 0.03 | 55 | 1007.1 |
| 20260508215428 | 18 | 211 | 0.0 | 6.4 | 0.00 | 0.15 | 0.03 | 55 | 1007.0 |
| 20260508214930 | 18 | 175 | 0.0 | 4.8 | 0.00 | 0.15 | 0.03 | 54 | 1007.0 |
| 20260508214430 | 18 | 260 | 1.6 | 8.0 | 0.00 | 0.15 | 0.03 | 54 | 1007.0 |
| 20260508213951 | 17 | 238 | 3.2 | 8.0 | 0.00 | 0.15 | 0.03 | 54 | 1007.0 |
| 20260508213428 | 17 | 208 | 3.2 | 8.0 | 0.00 | 0.15 | 0.03 | 52 | 1007.1 |
| 20260508212949 | 17 | 265 | 0.0 | 8.0 | 0.00 | 0.15 | 0.03 | 52 | 1007.1 |
| 20260508212429 | 17 | 181 | 3.2 | 8.0 | 0.00 | 0.15 | 0.03 | 51 | 1007.1 |
| 20260508211929 | 17 | 175 | 3.2 | 6.4 | 0.00 | 0.15 | 0.03 | 55 | 1007.3 |
| 20260508211430 | 17 | 188 | 3.2 | 6.4 | 0.00 | 0.15 | 0.03 | 53 | 1007.2 |
| 20260508210929 | 17 | 253 | 3.2 | 6.4 | 0.00 | 0.15 | 0.03 | 54 | 1007.2 |
| 20260508210430 | 17 | 219 | 3.2 | 11.3 | 0.00 | 0.15 | 0.03 | 53 | 1007.3 |
| 20260508205931 | 17 | 259 | 3.2 | 11.3 | 0.00 | 0.15 | 0.03 | 54 | 1007.4 |
| 20260508205413 | 18 | 192 | 6.4 | 9.7 | 0.00 | 0.15 | 0.03 | 53 | 1007.4 |
| 20260508204933 | 18 | 210 | 4.8 | 9.7 | 0.00 | 0.15 | 0.03 | 56 | 1007.5 |
| 20260508204453 | 18 | 277 | 3.2 | 9.7 | 0.00 | 0.15 | 0.03 | 56 | 1007.5 |
| 20260508203914 | 17 | 194 | 3.2 | 9.7 | 0.00 | 0.15 | 0.03 | 55 | 1007.5 |
| 20260508203436 | 18 | 181 | 6.4 | 11.3 | 0.00 | 0.15 | 0.03 | 56 | 1007.6 |
| 20260508202936 | 17 | 180 | 4.8 | 11.3 | 0.00 | 0.15 | 0.03 | 55 | 1007.6 |
| 20260508202435 | 17 | 221 | 4.8 | 12.9 | 0.00 | 0.15 | 0.03 | 58 | 1007.7 |
| 20260508201955 | 17 | 192 | 4.8 | 11.3 | 0.00 | 0.15 | 0.03 | 57 | 1007.7 |
| 20260508201453 | 17 | 207 | 3.2 | 11.3 | 0.00 | 0.15 | 0.03 | 57 | 1007.8 |
| 20260508200914 | 17 | 176 | 4.8 | 11.3 | 0.00 | 0.15 | 0.03 | 58 | 1008.0 |
| 20260508200416 | 17 | 133 | 1.6 | 9.7 | 0.00 | 0.15 | 0.03 | 59 | 1007.9 |
| 20260508195915 | 17 | 198 | 4.8 | 11.3 | 0.00 | 0.15 | 0.03 | 56 | 1008.0 |
| 20260508195414 | 17 | 189 | 4.8 | 11.3 | 0.00 | 0.15 | 0.03 | 56 | 1008.1 |
| 20260508194934 | 17 | 254 | 4.8 | 8.0 | 0.00 | 0.15 | 0.03 | 57 | 1008.1 |
| 20260508194453 | 17 | 117 | 1.6 | 6.4 | 0.00 | 0.15 | 0.03 | 57 | 1008.1 |
| 20260508193932 | 17 | 261 | 3.2 | 9.7 | 0.00 | 0.15 | 0.03 | 56 | 1008.2 |
| 20260508193415 | 17 | 200 | 4.8 | 9.7 | 0.00 | 0.15 | 0.03 | 58 | 1008.3 |
| 20260508192916 | 17 | 224 | 1.6 | 11.3 | 0.00 | 0.15 | 0.03 | 57 | 1008.3 |
| 20260508192416 | 17 | 78 | 1.6 | 8.0 | 0.00 | 0.15 | 0.03 | 58 | 1008.4 |
| 20260508191916 | 17 | 167 | 1.6 | 9.7 | 0.00 | 0.15 | 0.03 | 57 | 1008.5 |
| 20260508191417 | 17 | 202 | 1.6 | 12.9 | 0.00 | 0.15 | 0.03 | 58 | 1008.6 |
| 20260508190916 | 17 | 128 | 8.0 | 12.9 | 0.00 | 0.15 | 0.03 | 58 | 1008.7 |
| 20260508190417 | 17 | 191 | 3.2 | 9.7 | 0.00 | 0.15 | 0.03 | 60 | 1008.7 |
| 20260508185916 | 17 | 187 | 6.4 | 11.3 | 0.00 | 0.15 | 0.03 | 58 | 1008.8 |
| 20260508185418 | 17 | 158 | 4.8 | 11.3 | 0.00 | 0.15 | 0.03 | 57 | 1008.9 |
| 20260508184936 | 17 | 217 | 6.4 | 11.3 | 0.00 | 0.15 | 0.03 | 58 | 1009.0 |
| 20260508184415 | 17 | 121 | 1.6 | 12.9 | 0.00 | 0.15 | 0.03 | 58 | 1009.1 |
| 20260508183914 | 17 | 142 | 3.2 | 12.9 | 0.00 | 0.15 | 0.03 | 59 | 1009.1 |
| 20260508183414 | 17 | 214 | 3.2 | 9.7 | 0.00 | 0.15 | 0.03 | 55 | 1009.1 |
| 20260508182915 | 17 | 180 | 3.2 | 9.7 | 0.00 | 0.15 | 0.03 | 56 | 1009.2 |
| 20260508182431 | 17 | 148 | 3.2 | 11.3 | 0.00 | 0.15 | 0.03 | 56 | 1009.2 |
| 20260508181951 | 17 | 248 | 4.8 | 11.3 | 0.00 | 0.15 | 0.03 | 54 | 1009.4 |
| 20260508181430 | 17 | 169 | 0.0 | 8.0 | 0.00 | 0.15 | 0.03 | 54 | 1009.2 |
| 20260508180931 | 17 | 243 | 0.0 | 8.0 | 0.00 | 0.15 | 0.03 | 51 | 1009.5 |
| 20260508180430 | 17 | 222 | 3.2 | 8.0 | 0.00 | 0.15 | 0.03 | 49 | 1009.5 |
| 20260508175931 | 17 | 211 | 3.2 | 9.7 | 0.00 | 0.15 | 0.03 | 50 | 1009.5 |
| 20260508175431 | 17 | 285 | 3.2 | 11.3 | 0.00 | 0.15 | 0.03 | 45 | 1009.6 |
| 20260508174931 | 17 | 256 | 3.2 | 11.3 | 0.00 | 0.15 | 0.03 | 44 | 1009.6 |
| 20260508174430 | 17 | 178 | 3.2 | 8.0 | 0.00 | 0.15 | 0.03 | 45 | 1009.7 |
| 20260508173931 | 17 | 199 | 3.2 | 8.0 | 0.00 | 0.15 | 0.03 | 45 | 1009.7 |
| 20260508173429 | 17 | 158 | 1.6 | 6.4 | 0.00 | 0.15 | 0.03 | 48 | 1009.7 |
| 20260508172926 | 17 | 223 | 1.6 | 9.7 | 0.00 | 0.15 | 0.03 | 45 | 1010.0 |
| 20260508172427 | 17 | 257 | 4.8 | 9.7 | 0.00 | 0.15 | 0.03 | 46 | 1010.2 |
| 20260508171923 | 17 | 210 | 1.6 | 8.0 | 0.00 | 0.15 | 0.03 | 47 | 1010.3 |
| 20260508171423 | 17 | 147 | 3.2 | 8.0 | 0.00 | 0.15 | 0.03 | 48 | 1010.3 |
| 20260508170943 | 17 | 178 | 3.2 | 8.0 | 0.00 | 0.15 | 0.03 | 50 | 1010.3 |
| 20260508170423 | 17 | 292 | 1.6 | 8.0 | 0.00 | 0.15 | 0.03 | 50 | 1010.5 |
| 20260508165924 | 17 | 221 | 1.6 | 8.0 | 0.00 | 0.15 | 0.03 | 50 | 1010.5 |
| 20260508165425 | 17 | 258 | 3.2 | 8.0 | 0.00 | 0.15 | 0.03 | 49 | 1010.6 |
| 20260508164925 | 17 | 177 | 1.6 | 11.3 | 0.00 | 0.15 | 0.03 | 48 | 1010.6 |
| 20260508164425 | 17 | 209 | 1.6 | 11.3 | 0.00 | 0.15 | 0.03 | 49 | 1010.6 |
| 20260508163926 | 16 | 219 | 3.2 | 8.0 | 0.00 | 0.15 | 0.03 | 49 | 1010.7 |
| 20260508163446 | 16 | 133 | 1.6 | 4.8 | 0.00 | 0.15 | 0.03 | 52 | 1010.7 |
| 20260508162915 | 16 | 360 | 1.6 | 8.0 | 0.00 | 0.15 | 0.03 | 54 | 1010.7 |
| 20260508162415 | 16 | 360 | 4.8 | 8.0 | 0.00 | 0.15 | 0.03 | 50 | 1010.8 |
| 20260508161915 | 15 | 360 | 3.2 | 8.0 | 0.00 | 0.15 | 0.03 | 53 | 1011.0 |
| 20260508161416 | 15 | 216 | 3.2 | 8.0 | 0.00 | 0.15 | 0.03 | 52 | 1011.0 |
| 20260508160916 | 15 | 360 | 1.6 | 12.9 | 0.00 | 0.15 | 0.03 | 62 | 1011.0 |
| 20260508160416 | 15 | 360 | 4.8 | 12.9 | 0.00 | 0.15 | 0.03 | 59 | 1011.0 |
| 20260508155935 | 14 | 360 | 1.6 | 8.0 | 0.00 | 0.15 | 0.03 | 62 | 1011.1 |
| 20260508155414 | 14 | 360 | 1.6 | 8.0 | 0.00 | 0.15 | 0.03 | 64 | 1011.1 |
| 20260508154915 | 13 | 360 | 0.0 | 8.0 | 0.00 | 0.15 | 0.03 | 61 | 1011.1 |
| 20260508154416 | 13 | 360 | 1.6 | 8.0 | 0.00 | 0.15 | 0.03 | 66 | 1011.1 |
| 20260508153917 | 13 | 360 | 3.2 | 9.7 | 0.00 | 0.15 | 0.03 | 69 | 1011.2 |
| 20260508153416 | 13 | 360 | 1.6 | 6.4 | 0.00 | 0.15 | 0.03 | 73 | 1011.1 |
| 20260508152916 | 13 | 360 | 0.0 | 4.8 | 0.00 | 0.15 | 0.03 | 76 | 1011.1 |
| 20260508152436 | 13 | 360 | 1.6 | 6.4 | 0.00 | 0.15 | 0.03 | 75 | 1011.1 |
| 20260508151935 | 12 | 360 | 1.6 | 8.0 | 0.00 | 0.15 | 0.03 | 76 | 1011.1 |
| 20260508151437 | 12 | 360 | 4.8 | 8.0 | 0.00 | 0.15 | 0.03 | 76 | 1011.1 |
| 20260508150915 | 12 | 360 | 3.2 | 4.8 | 0.00 | 0.15 | 0.03 | 77 | 1011.2 |
| 20260508150415 | 12 | 360 | 1.6 | 4.8 | 0.00 | 0.15 | 0.03 | 78 | 1011.2 |
| 20260508145916 | 12 | 360 | 1.6 | 4.8 | 0.00 | 0.15 | 0.03 | 79 | 1011.0 |
| 20260508144916 | 12 | 360 | 4.8 | 8.0 | 0.00 | 0.15 | 0.03 | 80 | 1011.0 |
| 20260508144416 | 12 | 360 | 0.0 | 8.0 | 0.00 | 0.15 | 0.03 | 83 | 1011.0 |
| 20260508143916 | 11 | 360 | 3.2 | 8.0 | 0.00 | 0.15 | 0.03 | 83 | 1011.0 |
| 20260508143435 | 11 | 360 | 0.0 | 3.2 | 0.00 | 0.15 | 0.03 | 83 | 1011.1 |
| 20260508142916 | 11 | 360 | 0.0 | 6.4 | 0.00 | 0.15 | 0.03 | 83 | 1011.0 |
| 20260508142417 | 11 | 360 | 3.2 | 6.4 | 0.00 | 0.15 | 0.03 | 84 | 1011.2 |
| 20260508141917 | 11 | 360 | 0.0 | 4.8 | 0.00 | 0.15 | 0.03 | 85 | 1011.2 |
| 20260508141418 | 11 | 360 | 0.0 | 6.4 | 0.00 | 0.15 | 0.03 | 86 | 1011.3 |
| 20260508140919 | 11 | 360 | 0.0 | 6.4 | 0.00 | 0.15 | 0.03 | 86 | 1011.4 |
| 20260508140419 | 11 | 360 | 0.0 | 4.8 | 0.00 | 0.15 | 0.03 | 87 | 1011.6 |
| 20260508135919 | 10 | 360 | 1.6 | 8.0 | 0.00 | 0.15 | 0.03 | 87 | 1011.6 |
| 20260508135440 | 10 | 360 | 0.0 | 8.0 | 0.00 | 0.15 | 0.03 | 88 | 1011.6 |
| 20260508134917 | 10 | 360 | 1.6 | 4.8 | 0.00 | 0.15 | 0.03 | 89 | 1011.5 |
| 20260508134417 | 10 | 360 | 0.0 | 4.8 | 0.00 | 0.15 | 0.03 | 90 | 1011.6 |
| 20260508133916 | 10 | 360 | 1.6 | 8.0 | 0.00 | 0.15 | 0.03 | 92 | 1011.6 |
| 20260508133417 | 10 | 360 | 3.2 | 8.0 | 0.00 | 0.15 | 0.03 | 92 | 1011.7 |
| 20260508132918 | 9 | 360 | 0.0 | 6.4 | 0.00 | 0.15 | 0.03 | 94 | 1011.7 |
| 20260508132416 | 8 | 360 | 0.0 | 6.4 | 0.00 | 0.15 | 0.03 | 94 | 1011.7 |
| 20260508131917 | 8 | 360 | 3.2 | 6.4 | 0.00 | 0.15 | 0.03 | 94 | 1011.6 |
| 20260508131418 | 8 | 360 | 0.0 | 0.0 | 0.00 | 0.15 | 0.03 | 94 | 1011.4 |
| 20260508130919 | 8 | 360 | 0.0 | 0.0 | 0.00 | 0.15 | 0.03 | 95 | 1011.5 |
| 20260508130440 | 8 | 360 | 0.0 | 0.0 | 0.00 | 0.15 | 0.03 | 95 | 1011.6 |
| 20260508125919 | 7 | 360 | 0.0 | 1.6 | 0.00 | 0.15 | 0.03 | 95 | 1011.7 |
| 20260508125419 | 7 | 360 | 0.0 | 3.2 | 0.00 | 0.15 | 0.03 | 95 | 1011.7 |
| 20260508124919 | 7 | 360 | 0.0 | 3.2 | 0.00 | 0.15 | 0.03 | 94 | 1011.7 |
| 20260508124421 | 7 | 360 | 0.0 | 4.8 | 0.00 | 0.15 | 0.03 | 94 | 1011.6 |
| 20260508123922 | 7 | 360 | 1.6 | 4.8 | 0.00 | 0.15 | 0.03 | 95 | 1011.7 |
| 20260508123423 | 7 | 360 | 0.0 | 0.0 | 0.00 | 0.15 | 0.03 | 94 | 1011.7 |
| 20260508122924 | 7 | 360 | 0.0 | 4.8 | 0.00 | 0.15 | 0.03 | 94 | 1011.6 |
| 20260508122425 | 6 | 360 | 1.6 | 4.8 | 0.00 | 0.15 | 0.03 | 94 | 1011.7 |
| 20260508121925 | 6 | 360 | 1.6 | 4.8 | 0.00 | 0.15 | 0.03 | 94 | 1011.6 |
| 20260508121427 | 6 | 360 | 1.6 | 4.8 | 0.00 | 0.15 | 0.03 | 94 | 1011.6 |
| 20260508120927 | 6 | 360 | 0.0 | 0.0 | 0.00 | 0.15 | 0.03 | 94 | 1011.7 |
| 20260508120429 | 6 | 360 | 0.0 | 0.0 | 0.00 | 0.15 | 0.03 | 94 | 1011.5 |
| 20260508115928 | 6 | 360 | 0.0 | 0.0 | 0.00 | 0.15 | 0.03 | 94 | 1011.5 |
| 20260508115428 | 5 | 360 | 0.0 | 0.0 | 0.00 | 0.15 | 0.03 | 94 | 1011.3 |
| 20260508114929 | 5 | 360 | 0.0 | 0.0 | 0.00 | 0.15 | 0.03 | 94 | 1011.3 |
| 20260508114429 | 5 | 360 | 0.0 | 0.0 | 0.00 | 0.15 | 0.03 | 94 | 1011.3 |
| 20260508113930 | 5 | 360 | 0.0 | 0.0 | 0.00 | 0.15 | 0.03 | 93 | 1011.2 |
| 20260508113430 | 5 | 360 | 0.0 | 0.0 | 0.00 | 0.15 | 0.03 | 93 | 1011.2 |
| 20260508112929 | 4 | 360 | 0.0 | 0.0 | 0.00 | 0.15 | 0.03 | 93 | 1011.3 |
| 20260508112430 | 4 | 360 | 0.0 | 0.0 | 0.00 | 0.15 | 0.03 | 93 | 1011.1 |
| 20260508111932 | 4 | 360 | 0.0 | 0.0 | 0.00 | 0.15 | 0.03 | 92 | 1011.2 |
| 20260508111433 | 4 | 360 | 0.0 | 0.0 | 0.00 | 0.15 | 0.03 | 92 | 1011.2 |
| 20260508110933 | 4 | 360 | 0.0 | 0.0 | 0.00 | 0.15 | 0.03 | 92 | 1011.2 |
| 20260508110453 | 4 | 360 | 0.0 | 0.0 | 0.00 | 0.15 | 0.03 | 92 | 1011.2 |
| 20260508105930 | 4 | 360 | 0.0 | 0.0 | 0.00 | 0.15 | 0.03 | 92 | 1011.1 |
| 20260508105431 | 4 | 360 | 0.0 | 0.0 | 0.00 | 0.15 | 0.03 | 92 | 1010.8 |
| 20260508104931 | 4 | 360 | 0.0 | 0.0 | 0.00 | 0.15 | 0.03 | 92 | 1010.8 |
| 20260508104448 | 4 | 360 | 0.0 | 0.0 | 0.00 | 0.15 | 0.03 | 92 | 1010.8 |
| 20260508103926 | 5 | 360 | 0.0 | 0.0 | 0.00 | 0.15 | 0.03 | 92 | 1010.9 |
| 20260508103427 | 5 | 360 | 0.0 | 0.0 | 0.00 | 0.15 | 0.03 | 92 | 1010.9 |
| 20260508102928 | 5 | 360 | 0.0 | 0.0 | 0.00 | 0.15 | 0.03 | 92 | 1010.9 |
| 20260508102427 | 5 | 360 | 0.0 | 0.0 | 0.00 | 0.15 | 0.03 | 92 | 1010.9 |
| 20260508101929 | 5 | 360 | 0.0 | 0.0 | 0.00 | 0.15 | 0.03 | 92 | 1010.9 |
| 20260508101428 | 5 | 360 | 0.0 | 0.0 | 0.00 | 0.15 | 0.03 | 92 | 1010.9 |
| 20260508100927 | 5 | 360 | 0.0 | 0.0 | 0.00 | 0.15 | 0.03 | 92 | 1010.9 |
| 20260508100429 | 5 | 360 | 0.0 | 0.0 | 0.00 | 0.15 | 0.03 | 92 | 1010.9 |
| 20260508095930 | 5 | 360 | 0.0 | 0.0 | 0.00 | 0.15 | 0.03 | 92 | 1011.0 |
| 20260508095449 | 5 | 360 | 0.0 | 0.0 | 0.00 | 0.15 | 0.03 | 92 | 1010.9 |
| 20260508094930 | 5 | 360 | 0.0 | 0.0 | 0.00 | 0.15 | 0.03 | 92 | 1010.9 |
| 20260508094431 | 5 | 360 | 0.0 | 0.0 | 0.00 | 0.15 | 0.03 | 92 | 1010.9 |
| 20260508093931 | 5 | 360 | 0.0 | 0.0 | 0.00 | 0.15 | 0.03 | 92 | 1010.9 |
| 20260508093431 | 5 | 360 | 0.0 | 0.0 | 0.00 | 0.15 | 0.03 | 92 | 1011.0 |
| 20260508092913 | 5 | 360 | 0.0 | 0.0 | 0.00 | 0.15 | 0.03 | 92 | 1011.0 |
| 20260508092433 | 5 | 360 | 0.0 | 0.0 | 0.00 | 0.15 | 0.03 | 92 | 1011.0 |
| 20260508091913 | 5 | 360 | 0.0 | 0.0 | 0.00 | 0.15 | 0.03 | 92 | 1011.0 |
| 20260508091414 | 5 | 360 | 0.0 | 0.0 | 0.00 | 0.15 | 0.03 | 91 | 1011.0 |
| 20260508090915 | 5 | 360 | 0.0 | 0.0 | 0.00 | 0.15 | 0.03 | 91 | 1011.0 |
| 20260508090655 | 5 | 360 | 0.0 | 0.0 | 0.00 | 0.15 | 0.03 | 91 | 1011.0 |